When you browse on this site, cookies collect data to enhance your experience and personalize the content and advertising you see.
Visit our Privacy Policy to learn more. By continuing to use the site, you agree to this use of cookies and data.
  • In Hungary
  • List of Countries
  • For 7 days
  • Water Temperature
  • Weather Map
  • News
  • Weather Widgets
  • user-avatar
    Login

    Hourly Weather Myczkow

    Today, 29 March, Sunday

    Time Temperature Precipitation Wind Pressure Humidity
    00:00 +4°C° 0 mm 0 mps 713 mmHg 71%
    01:00 +4°C° 0 mm 0 mps 713 mmHg 69%
    02:00 +4°C° 0 mm 0 mps 713 mmHg 70%
    03:00 +3°C° 0 mm 0 mps 712 mmHg 71%
    04:00 +3°C° 0 mm 0 mps 712 mmHg 72%
    05:00 +4°C° 0 mm 0 mps 712 mmHg 69%
    06:00 +5°C° 0 mm 0 mps 712 mmHg 67%
    07:00 +7°C° 0 mm 1 mps 712 mmHg 62%
    08:00 +9°C° 0 mm 1 mps 713 mmHg 57%
    09:00 +10°C° 0 mm 2 mps 713 mmHg 51%
    10:00 +12°C° 0 mm 2 mps 713 mmHg 46%
    11:00 +11°C° 0.1 mm 3 mps 713 mmHg 47%
    12:00 +12°C° 0.1 mm 3 mps 712 mmHg 48%
    13:00 +13°C° 0 mm 3 mps 712 mmHg 41%
    14:00 +12°C° 0.1 mm 3 mps 712 mmHg 47%
    15:00 +11°C° 0.1 mm 3 mps 712 mmHg 52%
    16:00 +10°C° 0.1 mm 3 mps 712 mmHg 58%
    17:00 +9°C° 0.2 mm 3 mps 712 mmHg 67%
    18:00 +8°C° 0.2 mm 3 mps 712 mmHg 75%
    19:00 +5°C° 0.2 mm 3 mps 713 mmHg 83%
    20:00 +5°C° 0.1 mm 3 mps 713 mmHg 86%
    21:00 +4°C° 0.1 mm 3 mps 713 mmHg 88%
    22:00 +3°C° 0.1 mm 3 mps 713 mmHg 90%
    23:00 +3°C° 0.3 mm 3 mps 714 mmHg 92%

    Tomorrow, 30 March, Monday

    Time Temperature Precipitation Wind Pressure Humidity
    00:00 +3°C° 0.3 mm 4 mps 714 mmHg 93%
    01:00 +1°C° 0.3 mm 4 mps 714 mmHg 95%
    02:00 0°C° 0.3 mm 4 mps 714 mmHg 95%
    03:00 -1°C° 0.3 mm 4 mps 714 mmHg 94%
    04:00 -2°C° 0.3 mm 5 mps 714 mmHg 94%
    05:00 -2°C° 0.2 mm 5 mps 715 mmHg 92%
    06:00 -4°C° 0.2 mm 5 mps 715 mmHg 90%
    07:00 -5°C° 0.2 mm 5 mps 716 mmHg 88%
    08:00 -5°C° 0.2 mm 5 mps 716 mmHg 86%
    09:00 -4°C° 0.2 mm 5 mps 717 mmHg 84%
    10:00 -4°C° 0.2 mm 5 mps 717 mmHg 81%
    11:00 -4°C° 0.1 mm 5 mps 717 mmHg 77%
    12:00 -2°C° 0.1 mm 5 mps 718 mmHg 72%
    13:00 -2°C° 0.1 mm 5 mps 718 mmHg 67%
    14:00 -2°C° 0.1 mm 5 mps 718 mmHg 64%
    15:00 -2°C° 0.1 mm 5 mps 718 mmHg 62%
    16:00 -2°C° 0.1 mm 4 mps 718 mmHg 59%
    17:00 -3°C° 0 mm 4 mps 718 mmHg 62%
    18:00 -4°C° 0 mm 3 mps 718 mmHg 65%
    19:00 -5°C° 0 mm 2 mps 719 mmHg 68%
    20:00 -3°C° 0 mm 1 mps 719 mmHg 68%
    21:00 -3°C° 0 mm 1 mps 719 mmHg 68%
    22:00 -3°C° 0 mm 1 mps 719 mmHg 68%
    23:00 -3°C° 0 mm 1 mps 719 mmHg 70%

    Day after tomorrow, 31 March, Tuesday

    Time Temperature Precipitation Wind Pressure Humidity
    00:00 -3°C° 0 mm 1 mps 719 mmHg 71%
    01:00 -3°C° 0 mm 1 mps 720 mmHg 72%
    02:00 -3°C° 0 mm 1 mps 720 mmHg 74%
    03:00 -3°C° 0 mm 1 mps 720 mmHg 76%
    04:00 -3°C° 0 mm 1 mps 720 mmHg 78%
    05:00 -2°C° 0 mm 1 mps 720 mmHg 72%
    06:00 -1°C° 0 mm 1 mps 720 mmHg 66%
    07:00 -1°C° 0 mm 1 mps 720 mmHg 61%
    08:00 -1°C° 0 mm 2 mps 721 mmHg 55%
    09:00 +1°C° 0 mm 2 mps 721 mmHg 50%
    10:00 +1°C° 0 mm 3 mps 721 mmHg 44%
    11:00 +2°C° 0.1 mm 3 mps 721 mmHg 43%
    12:00 +3°C° 0.1 mm 2 mps 721 mmHg 42%
    13:00 +4°C° 0.1 mm 2 mps 721 mmHg 40%
    14:00 +3°C° 0.2 mm 2 mps 721 mmHg 42%
    15:00 +3°C° 0.2 mm 2 mps 721 mmHg 43%
    16:00 +3°C° 0.2 mm 2 mps 720 mmHg 45%
    17:00 +2°C° 0 mm 1 mps 721 mmHg 52%
    18:00 +1°C° 0 mm 1 mps 721 mmHg 59%
    19:00 -1°C° 0 mm 1 mps 721 mmHg 67%
    20:00 -1°C° 0 mm 1 mps 721 mmHg 67%
    21:00 -2°C° 0 mm 1 mps 721 mmHg 66%
    22:00 -2°C° 0 mm 1 mps 722 mmHg 66%
    23:00 -2°C° 0 mm 1 mps 722 mmHg 67%

    1 April, Wednesday

    Time Temperature Precipitation Wind Pressure Humidity
    00:00 -2°C° 0 mm 1 mps 722 mmHg 67%
    01:00 -2°C° 0 mm 1 mps 722 mmHg 68%
    02:00 -3°C° 0 mm 0 mps 721 mmHg 72%
    03:00 -4°C° 0 mm 0 mps 721 mmHg 76%
    04:00 -4°C° 0 mm 0 mps 721 mmHg 80%
    05:00 -3°C° 0 mm 0 mps 721 mmHg 74%
    06:00 -1°C° 0 mm 0 mps 721 mmHg 68%
    07:00 0°C° 0 mm 0 mps 721 mmHg 63%
    08:00 +2°C° 0 mm 1 mps 721 mmHg 56%
    09:00 +2°C° 0 mm 2 mps 721 mmHg 49%
    10:00 +4°C° 0 mm 2 mps 720 mmHg 42%
    11:00 +3°C° 0 mm 3 mps 720 mmHg 40%
    12:00 +4°C° 0 mm 3 mps 720 mmHg 39%
    13:00 +5°C° 0 mm 3 mps 719 mmHg 38%
    14:00 +4°C° 0 mm 3 mps 719 mmHg 39%
    15:00 +4°C° 0 mm 3 mps 718 mmHg 41%
    16:00 +4°C° 0 mm 3 mps 717 mmHg 42%
    17:00 +2°C° 0 mm 3 mps 717 mmHg 50%
    18:00 +1°C° 0 mm 2 mps 717 mmHg 57%
    19:00 -2°C° 0 mm 2 mps 717 mmHg 64%
    20:00 -2°C° 0 mm 2 mps 717 mmHg 64%
    21:00 -2°C° 0 mm 2 mps 717 mmHg 63%
    22:00 -3°C° 0 mm 2 mps 717 mmHg 63%
    23:00 -3°C° 0 mm 2 mps 717 mmHg 62%

    2 April, Thursday

    Time Temperature Precipitation Wind Pressure Humidity
    00:00 -3°C° 0 mm 2 mps 716 mmHg 61%
    01:00 -3°C° 0 mm 2 mps 716 mmHg 60%
    02:00 -3°C° 0 mm 2 mps 716 mmHg 61%
    03:00 -4°C° 0 mm 2 mps 716 mmHg 62%
    04:00 -4°C° 0 mm 2 mps 715 mmHg 63%
    05:00 -3°C° 0 mm 2 mps 715 mmHg 60%
    06:00 -2°C° 0 mm 3 mps 715 mmHg 56%
    07:00 0°C° 0 mm 3 mps 715 mmHg 52%
    08:00 0°C° 0 mm 4 mps 715 mmHg 48%
    09:00 +3°C° 0 mm 4 mps 715 mmHg 44%
    10:00 +4°C° 0 mm 4 mps 715 mmHg 39%
    11:00 +5°C° 0 mm 5 mps 715 mmHg 39%
    12:00 +6°C° 0 mm 5 mps 715 mmHg 39%
    13:00 +6°C° 0 mm 5 mps 714 mmHg 39%
    14:00 +6°C° 0 mm 5 mps 714 mmHg 41%
    15:00 +6°C° 0 mm 5 mps 714 mmHg 43%
    16:00 +6°C° 0 mm 5 mps 713 mmHg 45%
    17:00 +4°C° 0 mm 4 mps 713 mmHg 51%
    18:00 +3°C° 0 mm 4 mps 713 mmHg 57%
    19:00 +1°C° 0 mm 3 mps 713 mmHg 63%
    20:00 +1°C° 0 mm 3 mps 713 mmHg 63%
    21:00 0°C° 0 mm 3 mps 713 mmHg 63%
    22:00 0°C° 0 mm 3 mps 713 mmHg 63%
    23:00 0°C° 0 mm 3 mps 713 mmHg 64%

    3 April, Friday

    Time Temperature Precipitation Wind Pressure Humidity
    00:00 -1°C° 0 mm 3 mps 713 mmHg 65%
    01:00 -1°C° 0 mm 3 mps 712 mmHg 65%
    02:00 -1°C° 0 mm 3 mps 712 mmHg 67%
    03:00 -1°C° 0 mm 3 mps 712 mmHg 68%
    04:00 -2°C° 0 mm 3 mps 712 mmHg 69%
    05:00 -1°C° 0 mm 4 mps 712 mmHg 68%
    06:00 0°C° 0 mm 4 mps 712 mmHg 66%
    07:00 +1°C° 0 mm 5 mps 712 mmHg 65%
    08:00 +2°C° 0 mm 5 mps 712 mmHg 62%
    09:00 +4°C° 0 mm 6 mps 712 mmHg 58%
    10:00 +5°C° 0 mm 6 mps 711 mmHg 55%
    11:00 +5°C° 0 mm 6 mps 711 mmHg 57%
    12:00 +7°C° 0 mm 6 mps 711 mmHg 58%
    13:00 +7°C° 0 mm 6 mps 711 mmHg 59%
    14:00 +7°C° 0.2 mm 5 mps 711 mmHg 63%
    15:00 +6°C° 0.2 mm 5 mps 711 mmHg 66%
    16:00 +6°C° 0.2 mm 4 mps 710 mmHg 70%
    17:00 +5°C° 0.1 mm 3 mps 711 mmHg 75%
    18:00 +5°C° 0.1 mm 2 mps 711 mmHg 80%
    19:00 +3°C° 0.1 mm 2 mps 711 mmHg 85%
    20:00 +3°C° 0.1 mm 2 mps 712 mmHg 87%
    21:00 +2°C° 0.1 mm 3 mps 713 mmHg 88%
    22:00 +2°C° 0.1 mm 3 mps 713 mmHg 90%
    23:00 +1°C° 0.1 mm 3 mps 714 mmHg 89%
    Show more